STARLINK-36067, 66965

Orbit data source: Space-Track

STARLINK-36067, 66965 is a payload satellite owned by SpaceX/Seattle (US) in LEO that was launched on Mon, 08 Dec 2025 UTC via an FALCON 9 launch vehicle from the Air Force Eastern Test Range (AFETR). Payload-class satellites include a variety of spacecraft equipped with specific instruments for various scientific and technological missions. These include communications satellites like Starlink; space stations such as the ISS; scientific satellites like the Hubble; Earth observation satellites from companies like Planet Labs, Umbra, and HawkEye 360; GPS; miniature CubeSats for education and research; and military/defense satellites.

Loading next visibility...
Identifier
66965, 2025-288G
Orbit
LEO
Country
Flag of USUS
Related business
Manufacturer
SpaceX/Seattle
Mission
Operational Commercial Communications
Bus & Motor
STARLINK V2MO, Unknown motor
Mass
575 kg wet, ~530 kg dry
Launch date (UTC)
2025-12-08 (5 months ago)
Launch vehicle
FALCON 9
Launch site
Air Force Eastern Test Range (AFETR)
Object type
Payload
Rocket body
Debris
Shape & HBR
Box + 2 Pan, 17.7 m
Radar Cross Section
36.964 m²

Expand to show TLE details & history
Last TLE update: 12 hours ago

TLE from 12 hours ago
0 STARLINK-36067
1 66965U 25288G   26130.04554672  .00023209  00000-0  85157-3 0  9997
2 66965  42.9985  36.7233 0000787 274.6080  85.4682 15.27529982 24676
Epoch: 2026-05-10T01:05Z
TLE epoch observation values (Epoch: 2026-05-10T01:05:35.236Z)
Latitude
-0°
Longitude
152.47222°
Altitude
482.932 km
Speed
7.626 km/s
True Right ascension
02h 26m 53s
True Declination
0° 00' 00"
Sunlit
Object was in daylight at epoch
Visualization orbit readout
Latitude
Unknown
Longitude
Unknown
Altitude
Unknown
Speed
Unknown
Apparent Right ascension
Unknown
Apparent Declination
Unknown
Sunlit
N/A
Visualization observer readout
Local Sidereal Time
21:22:04
Azimuth
Unknown
Elevation
Unknown
Doppler factor
Unknown
Orbital elements
Apogee altitude
485.684 km
Perigee altitude
484.604 km
Semi-major axis
6,863.281 km
Eccentricity
0.00008
Inclination
42.9985°
RAAN
36.7233°
Arg. of periapsis
274.608°
True anomaly
85.47719°
Mean anomaly
85.4682°
Eccentric anomaly
85.4727°
Mean motion
3.8172 °/min
Orbital period
94.31 mins
BSTAR
0.00085157
Loading maneuver chart data...
Computing Atmospheric mass density...
Loading historical data...
Loading historical data...
Loading historical data...
Loading historical data...
Loading historical data...
Loading historical data...
Loading historical data...

Documentation

Showing up to 5 results
|